[[{"header":{"parameterUnit":"m.s-1","parameterCategory":1,"la1":30.2991,"la2":30.254,"lo1":-89.0895,"lo2":-89.0444,"dy":0.0017,"dx":0.0017,"nx":28,"ny":28,"refTime":"2024-10-02T03:00:00:Z","depth":0,"parameterNumber":2,"parameterNumberName":"U-component_of_WINDS"},"data":[0,0,0,0,0,0,0,0,0,0,0,0,0,0,0,0,0,0,0,0,0,0,0,0,0,0,0,0,0,0,0,0,0,0,0,0,0,0,0,0,0,0,0,0,0,0,0,0,0,0,0,0,0,0,0,0,0,0,-4.211,-4.211,0,-4.2033,-4.2032,-4.2031,-4.1904,-4.1902,-4.1899,-4.1897,-4.1819,-4.1819,-4.1819,0,0,0,0,0,0,0,0,0,0,0,0,0,-4.2152,-4.2152,-4.2111,-4.211,-4.2109,-4.2033,-4.2032,-4.2031,-4.1905,-4.1902,-4.1899,-4.1896,-4.1819,-4.1819,-4.1819,0,0,0,0,0,0,0,0,0,0,0,0,0,-4.211,-4.2152,-4.2111,-4.2036,-4.2029,-4.2033,-4.2032,-4.2031,-4.1905,-4.1902,-4.1898,-4.1895,-4.1818,-4.1819,-4.1819,-4.189,0,0,-4.1819,-4.1819,0,0,0,0,0,0,0,0,-4.2113,-4.2109,-4.2048,-4.2041,-4.2033,-4.1975,-4.2018,-4.1984,-4.1906,-4.1952,-4.1897,-4.1893,-4.1873,-4.1869,-4.1862,-4.1886,-4.1883,-4.1819,-4.1819,-4.1819,-4.1819,0,0,0,0,0,0,0,-4.2116,-4.2111,-4.208,-4.2048,-4.2038,-4.2008,-4.1998,-4.2011,-4.1933,-4.1948,-4.1938,-4.1931,-4.1869,-4.1862,-4.1859,-4.1881,-4.1819,-4.1819,-4.1819,-4.1819,-4.1965,-4.1968,0,0,0,0,0,0,-4.2129,-4.2115,-4.2082,-4.2077,-4.2065,-4.201,-4.1999,-4.1997,-4.1933,-4.192,-4.1934,-4.1925,-4.1864,-4.1859,-4.1856,-4.1937,-4.1819,-4.1819,-4.1819,-4.1961,-4.1965,-4.197,0,0,0,0,0,0,-4.2131,-4.2128,-4.2085,-4.2094,-4.2086,-4.2013,-4.2012,-4.1997,-4.1991,-4.1922,-4.1908,-4.1942,-4.1861,-4.1856,-4.1883,-4.1933,-4.1819,-4.182,-4.1956,-4.1962,-4.1967,-4.2099,0,0,0,0,0,0,-4.2132,-4.2129,-4.2154,-4.2095,-4.2086,-4.2113,-4.2015,-4.1998,-4.1991,-4.1979,-4.1926,-4.1913,-4.1858,-4.1884,-4.1883,-4.1931,-4.182,-4.1952,-4.1959,-4.1966,-4.209,-4.2109,-4.2125,0,0,0,0,0,-4.2134,-4.2193,-4.2156,-4.2153,-4.2116,-4.2116,-4.2111,-4.2045,-4.1996,-4.2021,-4.1978,-4.1915,-4.1928,-4.1888,-4.1886,-4.1934,-4.1948,-4.1957,-4.1965,-4.2082,-4.2105,-4.2124,0,0,0,0,0,0,-4.2258,-4.2184,-4.2142,-4.2183,-4.2157,-4.2095,-4.2124,-4.2071,-4.2058,-4.2047,-4.1967,-4.1956,-4.1995,-4.1967,-4.1924,-4.2002,-4.1928,-4.1937,-4.2018,-4.2039,-4.2056,-4.2062,-4.182,0,0,0,0,0,-4.2291,-4.2297,-4.2232,-4.2275,-4.2264,-4.2198,-4.2195,-4.2147,-4.2117,-4.2105,-4.2064,-4.2037,-4.2036,-4.2036,-4.203,-4.2086,-4.2074,-4.2119,-4.2137,-4.2151,-4.2159,-4.2191,-4.2211,-4.1997,-4.1997,-4.1997,0,0,-4.2357,-4.2318,-4.2326,-4.2299,-4.2273,-4.2283,-4.2189,-4.2201,-4.2208,-4.2107,-4.2131,-4.2101,-4.2066,-4.2109,-4.2126,-4.2087,-4.2216,-4.2162,-4.2174,-4.2174,-4.2201,-4.2222,-4.224,-4.2003,-4.2002,-4.2001,0,0,-4.2484,-4.2454,-4.2488,-4.2465,-4.2428,-4.2384,-4.2393,-4.2339,-4.2315,-4.2338,-4.2264,-4.2271,-4.2269,-4.2248,-4.2238,-4.2363,-4.2305,-4.2363,-4.2453,-4.2485,-4.2501,-4.2516,-4.2563,-4.258,-4.2372,-4.2372,-4.2372,0,-4.2571,-4.2582,-4.2512,-4.2531,-4.2523,-4.2433,-4.2469,-4.245,-4.2413,-4.241,-4.2367,-4.2366,-4.2336,-4.2375,-4.2406,-4.2399,-4.2408,-4.2368,-4.2505,-4.2518,-4.2531,-4.2575,-4.2592,-4.238,-4.2379,-4.2378,-4.2377,0,-4.2692,-4.2702,-4.2734,-4.2702,-4.2697,-4.2725,-4.2661,-4.2665,-4.2619,-4.258,-4.2607,-4.2569,-4.2556,-4.2561,-4.2516,-4.2595,-4.2573,-4.2519,-4.2443,-4.256,-4.26,-4.2616,-4.239,-4.2388,-4.2385,-4.2384,0,0,-4.2891,-4.2824,-4.2837,-4.2823,-4.2778,-4.2784,-4.281,-4.2797,-4.2804,-4.2783,-4.2803,-4.2806,-4.2757,-4.2745,-4.2697,-4.2725,-4.2829,-4.2667,-4.2665,-4.27,-4.2918,-4.296,-4.298,-4.2792,-4.2795,-4.2797,-4.2922,0,-4.3009,-4.3047,-4.2987,-4.3039,-4.3049,-4.2966,-4.2988,-4.2964,-4.293,-4.2934,-4.2896,-4.29,-4.2834,-4.2827,-4.2851,-4.2812,-4.2872,-4.2802,-4.2811,-4.2812,-4.2823,-4.3,-4.3043,-4.3162,-4.2936,-4.2939,-4.2941,0,-4.3149,-4.3138,-4.3192,-4.3147,-4.3149,-4.317,-4.3156,-4.316,-4.3133,-4.3106,-4.3096,-4.3041,-4.3064,-4.2992,-4.3025,-4.2979,-4.298,-4.2962,-4.2965,-4.2963,-4.2884,-4.3004,-4.3198,-4.3217,-4.2964,-4.2962,-4.2961,0,-4.3292,-4.3289,-4.3322,-4.3312,-4.3261,-4.3278,-4.3258,-4.3227,-4.3225,-4.3214,-4.3212,-4.3204,-4.3199,-4.3195,-4.314,-4.3092,-4.3181,-4.3103,-4.3161,-4.3163,-4.3182,-4.3182,-4.338,-4.3183,-4.3183,-4.3182,-4.3182,0,-4.3429,-4.3466,-4.3385,-4.3406,-4.3446,-4.3378,-4.342,-4.3391,-4.3365,-4.338,-4.3308,-4.3324,-4.3249,-4.3258,-4.3215,-4.325,-4.3249,-4.3229,-4.3217,-4.3236,-4.3239,-4.3235,-4.3225,-4.3187,-4.3186,-4.3185,-4.3184,0,-4.3594,-4.3541,-4.3572,-4.3522,-4.3511,-4.3543,-4.35,-4.3518,-4.3481,-4.3501,-4.3502,-4.3444,-4.345,-4.3395,-4.3391,-4.3362,-4.3418,-4.3392,-4.3428,-4.342,-4.3481,-4.3477,-4.3684,-4.3709,-4.3496,-4.3498,-4.35,0,-4.3685,-4.3711,-4.3666,-4.3671,-4.3655,-4.3663,-4.3662,-4.3598,-4.36,-4.3573,-4.3595,-4.3596,-4.3593,-4.3608,-4.3566,-4.3564,-4.3537,-4.3611,-4.3536,-4.3555,-4.354,-4.354,-4.3543,-4.3626,-4.3628,-4.3631,-4.3632,0,-4.3853,-4.3827,-4.3827,-4.3821,-4.3821,-4.3813,-4.3799,-4.3808,-4.3739,-4.3745,-4.3751,-4.375,-4.3747,-4.375,-4.374,-4.372,-4.3666,-4.3657,-4.367,-4.3689,-4.3709,-4.3701,-4.3471,-4.3652,-4.365,-4.3648,-4.3647,-4.3646,-4.3983,-4.4005,-4.3978,-4.3982,-4.3966,-4.3956,-4.3972,-4.3938,-4.3942,-4.3935,-4.3898,-4.3912,-4.3888,-4.387,-4.3856,-4.3867,-4.3832,-4.3851,-4.3856,-4.3862,-4.3874,-4.3708,-4.3865,-4.3865,-4.3864,-4.3864,-4.3863,0,-4.4149,-4.4129,-4.4133,-4.4118,-4.4123,-4.4073,-4.4057,-4.4064,-4.4078,-4.406,-4.406,-4.407,-4.4073,-4.4034,-4.4033,-4.405,-4.4026,-4.4052,-4.405,-4.4047,-4.3904,-4.3893,-4.4072,-4.4072,-4.4072,-4.4072,-4.4072,-4.4072,-4.4236,-4.427,-4.4242,-4.4269,-4.4248,-4.4262,-4.4258,-4.425,-4.4235,-4.425,-4.4253,-4.4227,-4.4202,-4.42,-4.4202,-4.419,-4.4194,-4.423,-4.421,-4.4077,-4.4057,-4.4037,-4.4027,-4.4231,-4.4231,-4.4352,-4.4353,-4.4354]},{"header":{"parameterUnit":"m.s-1","parameterCategory":1,"la1":30.2991,"la2":30.254,"lo1":-89.0895,"lo2":-89.0444,"dy":0.0017,"dx":0.0017,"nx":28,"ny":28,"refTime":"2024-10-02T03:00:00:Z","depth":0,"parameterNumber":3,"parameterNumberName":"V-component_of_WINDS"},"data":[0,0,0,0,0,0,0,0,0,0,0,0,0,0,0,0,0,0,0,0,0,0,0,0,0,0,0,0,0,0,0,0,0,0,0,0,0,0,0,0,0,0,0,0,0,0,0,0,0,0,0,0,0,0,0,0,0,0,0.1966,0.1966,0,0.1914,0.1914,0.1913,0.1921,0.1922,0.1923,0.1924,0.1869,0.1867,0.1864,0,0,0,0,0,0,0,0,0,0,0,0,0,0.2072,0.207,0.1966,0.1965,0.1965,0.1914,0.1914,0.1913,0.1921,0.1922,0.1923,0.1924,0.187,0.1867,0.1864,0,0,0,0,0,0,0,0,0,0,0,0,0,0.2023,0.2069,0.1966,0.1963,0.1962,0.1914,0.1914,0.1913,0.1921,0.1922,0.1924,0.1925,0.1871,0.1867,0.1864,0.1815,0,0,0.1853,0.1852,0,0,0,0,0,0,0,0,0.2026,0.202,0.1964,0.1963,0.1962,0.1926,0.1931,0.188,0.1921,0.1936,0.1924,0.1926,0.1887,0.1882,0.1869,0.1813,0.1811,0.1853,0.1851,0.1849,0.1848,0,0,0,0,0,0,0,0.203,0.2022,0.1946,0.1963,0.1962,0.1964,0.1958,0.1921,0.1905,0.1935,0.1936,0.193,0.1886,0.1872,0.1868,0.181,0.1853,0.185,0.1848,0.1846,0.1712,0.1711,0,0,0,0,0,0,0.2034,0.2025,0.1947,0.1944,0.1998,0.1961,0.1955,0.1936,0.1905,0.1902,0.1928,0.193,0.1878,0.1872,0.1866,0.1808,0.1849,0.1846,0.1844,0.1714,0.1712,0.1711,0,0,0,0,0,0,0.2036,0.2027,0.1949,0.1984,0.1975,0.1958,0.1936,0.1934,0.192,0.19,0.1897,0.1917,0.1878,0.1871,0.1828,0.1806,0.1845,0.1841,0.1716,0.1713,0.1711,0.1691,0,0,0,0,0,0,0.2039,0.2028,0.2009,0.1984,0.1973,0.1912,0.1935,0.1932,0.1915,0.1916,0.1889,0.1885,0.1879,0.1833,0.1825,0.1802,0.1839,0.1718,0.1715,0.1712,0.1693,0.1688,0.1683,0,0,0,0,0,0.2043,0.2005,0.2008,0.1999,0.1949,0.1911,0.1905,0.1899,0.1913,0.1894,0.1881,0.1886,0.181,0.1829,0.1819,0.1795,0.1719,0.1715,0.1712,0.1695,0.1689,0.1684,0,0,0,0,0,0,0.2027,0.2001,0.2005,0.1957,0.1937,0.1913,0.1889,0.1892,0.1866,0.1869,0.1862,0.1855,0.1812,0.18,0.1821,0.1747,0.1766,0.1761,0.1757,0.1751,0.1746,0.1749,0.1836,0,0,0,0,0,0.2018,0.1989,0.1969,0.1929,0.1918,0.1905,0.1889,0.1886,0.1864,0.1855,0.1839,0.1816,0.1788,0.1769,0.1741,0.1692,0.1686,0.1671,0.1666,0.1662,0.1657,0.163,0.1623,0.17,0.17,0.17,0,0,0.1999,0.1981,0.1964,0.1925,0.1909,0.1879,0.1898,0.1865,0.1844,0.185,0.1808,0.1796,0.1771,0.1726,0.1704,0.1713,0.1635,0.1658,0.1655,0.1652,0.1626,0.1619,0.1613,0.1697,0.1698,0.1698,0,0,0.1948,0.1933,0.1898,0.1882,0.1857,0.1849,0.1841,0.1817,0.1809,0.1768,0.1772,0.1746,0.1697,0.1679,0.1663,0.1609,0.1612,0.16,0.1574,0.1548,0.1542,0.1537,0.1517,0.151,0.1595,0.1595,0.1595,0,0.1927,0.1883,0.188,0.1847,0.183,0.1836,0.1801,0.1785,0.1752,0.174,0.1751,0.169,0.1674,0.1624,0.1611,0.1598,0.1589,0.1602,0.1544,0.1538,0.1533,0.1514,0.1507,0.1594,0.1594,0.1594,0.1594,0,0.1859,0.1829,0.1804,0.1773,0.1753,0.172,0.1711,0.1692,0.1691,0.1682,0.1641,0.1622,0.1591,0.1579,0.1578,0.153,0.1536,0.1545,0.1564,0.1525,0.1507,0.1499,0.1592,0.1592,0.1593,0.1593,0,0,0.1795,0.1764,0.1755,0.1741,0.1716,0.1692,0.1659,0.163,0.1613,0.1591,0.1563,0.1522,0.1531,0.1514,0.1511,0.1489,0.1447,0.1501,0.15,0.1491,0.1392,0.1385,0.1376,0.145,0.1449,0.1448,0.1394,0,0.1742,0.1684,0.168,0.1628,0.16,0.1606,0.1578,0.1559,0.155,0.1525,0.1515,0.1486,0.15,0.149,0.1468,0.1457,0.1427,0.1461,0.1423,0.1422,0.1428,0.1367,0.1358,0.1309,0.1387,0.1386,0.1385,0,0.1671,0.1648,0.1593,0.1573,0.1561,0.1535,0.1509,0.1485,0.1464,0.1459,0.1441,0.1441,0.1408,0.143,0.1383,0.1406,0.1391,0.1383,0.1381,0.1376,0.14,0.136,0.1293,0.1285,0.1374,0.1375,0.1376,0,0.163,0.1585,0.1547,0.1535,0.151,0.1492,0.1481,0.1461,0.1444,0.1421,0.141,0.1383,0.1368,0.1347,0.1341,0.1357,0.1294,0.1315,0.1289,0.1289,0.1274,0.1275,0.1203,0.1266,0.1267,0.1267,0.1267,0,0.157,0.1536,0.1528,0.1504,0.1466,0.1463,0.1426,0.1416,0.1399,0.1373,0.1377,0.1353,0.1346,0.1321,0.1316,0.1279,0.1272,0.1267,0.1266,0.1266,0.1266,0.1255,0.1258,0.1265,0.1265,0.1266,0.1266,0,0.1516,0.1509,0.1468,0.1448,0.1443,0.1416,0.1399,0.1376,0.1369,0.1337,0.1329,0.1317,0.1287,0.128,0.1244,0.1241,0.1196,0.1199,0.1204,0.1203,0.1177,0.1179,0.1094,0.1083,0.1155,0.1154,0.1153,0,0.1478,0.1452,0.1431,0.1414,0.1402,0.1376,0.1359,0.1355,0.1337,0.1313,0.1293,0.1264,0.1241,0.1194,0.1182,0.1155,0.1156,0.1128,0.1152,0.1153,0.1155,0.1156,0.1154,0.1123,0.1123,0.1122,0.1121,0,0.1411,0.1409,0.1385,0.136,0.134,0.132,0.13,0.1287,0.128,0.126,0.1231,0.1213,0.1178,0.1149,0.1122,0.111,0.1115,0.1115,0.1107,0.1106,0.1109,0.1107,0.119,0.1116,0.1117,0.1117,0.1117,0.1117,0.1363,0.1341,0.1323,0.1296,0.1281,0.1263,0.1241,0.1232,0.1208,0.1179,0.1179,0.1146,0.1127,0.1092,0.1079,0.1054,0.1062,0.1051,0.1048,0.1045,0.1043,0.1115,0.1049,0.1049,0.1049,0.105,0.105,0,0.1296,0.1285,0.126,0.1234,0.1213,0.1221,0.12,0.1182,0.1154,0.1136,0.1113,0.108,0.1053,0.104,0.1013,0.0995,0.0996,0.0988,0.0989,0.0986,0.1037,0.1046,0.0987,0.0987,0.0987,0.0987,0.0987,0.0988,0.1258,0.1221,0.1217,0.1173,0.1163,0.1132,0.1119,0.1103,0.1089,0.1052,0.1029,0.1022,0.1006,0.0978,0.0953,0.095,0.094,0.093,0.0928,0.0976,0.0982,0.0988,0.0996,0.0928,0.0928,0.0879,0.0878,0.0878]}]]